Location: Unspecified
(0.0000°N, 0.0000°E)
Time: 01:25:20
(UTC+00:00)

AO-7 - Pass Details

Date: 30 September 2021
Orbit: 1439 x 1459 km, 101.9° (Epoch: 26 October)

Event Time Altitude Azimuth Distance (km) Brightness Sun altitude
Rises 04:59:00 0° 349° (NNW) 4,519 ? -12.7°
Reaches altitude 10° 05:02:29 10° 335° (NNW) 3,542 ? -11.9°
Maximum altitude 05:08:33 23° 287° (WNW) 2,669 ? -10.4°
Drops below altitude 10° 05:14:40 10° 239° (WSW) 3,550 ? -8.8°
Sets 05:18:12 0° 225° (SW) 4,531 ? -7.9°
